[Date Prev][Date Next][Thread Prev][Thread Next] - [Date Index][Thread Index][Author Index]

2 Line ISS Keps 2-24



ISS
1 25544U 98067A   03055.48490583  .00016034  00000-0  20977-3 0  7231
2 25544  51.6343 226.2914 0011914 240.7333 215.6510 15.58715118243425


----
Via the sarex mailing list at AMSAT.ORG courtesy of AMSAT-NA.
To unsubscribe, send "unsubscribe sarex" to Majordomo@amsat.org



AMSAT Top AMSAT Home